Weather in Roza

Russia / Chelyabinsk Oblast     54°54′56″N   61°27′26″E
temp.,
°C
wind,
m/s
gust,
m/s
humid.,
%
clouds,
%
prec.,
mm/h
press.,
hPa
HPBL,
m
26 june, sun
sun2623:00+15nw378668 0.4 1003145
02:00+13wnw49902 0.0 1004184
05:00+12nw511855 0.0 1004325
08:00+14nw69740 0.0 1005850
11:00+13nw787370 0.1 10061245
14:00+13nw71062100 0.1 10071658
17:00+13nw796899 0.2 10071301
20:00+11nw6969100 0.0 1008963
27 june, mon
mon2723:00+9nw7973100 0.0 10091025
02:00+8nw61077100 0.0 1010715
05:00+8nw61077100 0.0 1011663
08:00+9nw7107677 0.0 1011725
11:00+13nw6767100 0.0 10111146
14:00+17wnw685424 0.0 10101665
17:00+18wnw68505 0.0 10081760
20:00+16wsw477265 0.0 1007172
28 june, tue
tue2823:00+14sw41083100 0.9 1006267
02:00+14wnw5119113 0.4 1005498
05:00+10nnw71192100 0.4 1007585
08:00+10nnw798339 0.1 1008731
11:00+11nnw787787 0.3 10081000
14:00+12nnw566392 0.3 10081602
17:00+9nnw586897 0.8 10101170
20:00+8nnw576694 0.1 10101006
29 june, wed
wed2923:00+7nnw497294 0.1 1010964
02:00+6nw6118168 0.0 1009519
05:00+5nw51182100 0.0 1009508
08:00+8nw7107265 0.0 1009798
11:00+7nw71278100 0.0 1008820
14:00+9nw51379100 0.0 1008822
17:00+15n410635 0.1 10071607
20:00+14nnw23686 0.0 100757
30 june, thu
thu3023:00+12w3671100 0.0 1007101
02:00+12wnw51073100 0.0 1006352
05:00+10wnw51079100 0.0 1006279
08:00+11nw61172100 0.0 1006606
11:00+13wnw5661100 0.1 10061463
14:00+14wnw455791 0.3 10051395
17:00+16wnw345587 0.7 10041486
20:00+13w227598 0.9 100440